Stevens Point, WI

12:04 AM CDT on July 22, 2017 (GMT -0500)
Stevens Point Municipal

Weather History for KSTE - September, 2013

Change the Weather History Date:

Tuesday, September 24, 2013

  Actual Average Record
Temperature  
Mean Temperature 54 °F -  
Max Temperature 68 °F 63 °F 87 °F (2007)
Min Temperature 39 °F 42 °F 26 °F (1950)
Degree Days  
Heating Degree Days 12    
Growing Degree Days 4 (Base 50)    
Moisture  
Dew Point 46 °F    
Average Humidity 81    
Maximum Humidity 100    
Minimum Humidity 46    
Precipitation  
Precipitation 0.00 in - - ()
Sea Level Pressure  
Sea Level Pressure 30.04 in    
Wind  
Wind Speed 4 mph (East)    
Max Wind Speed 8 mph    
Max Gust Speed -    
Visibility 7 miles    
Events Fog    
Averages and records for this station are not official NWS values.
T = Trace of Precipitation, MM = Missing Value Source: NWS Daily Summary

Daily Weather History Graph

Daily Weather History Graph

Search for Another Location

Airport or City:

Trip Planner

Search our weather history database for the weather conditions in past years. The results will help you decide how hot, cold, wet, or windy it might be!

Date:

Astronomy

Sep. 24, 2013 Rise Set
Actual Time 6:47 AM CDT 6:51 PM CDT
Civil Twilight 6:18 AM CDT 7:20 PM CDT
Nautical Twilight 5:44 AM CDT 7:54 PM CDT
Astronomical Twilight 5:09 AM CDT 8:28 PM CDT
Moon 9:56 PM CDT (9/24) 12:14 PM CDT (9/24)
Length of Visible Light 13h 01m
Length of Day
12h 03m
Waning Gibbous, 73% of the Moon is Illuminated
Sep 24
Waning Gibbous
Sep 26
Last Quarter
Oct 4
New
Oct 11
First Quarter
Oct 18
Full

Hourly Weather History & Observations

Time (CDT) Temp. Windchill Dew Point Humidity Pressure Visibility Wind Dir Wind Speed Gust Speed Precip Events Conditions
12:15 AM 45.7 °F 44.4 °F 43.9 °F 93% 30.07 in 10.0 mi ESE 3.5 mph - N/A   Clear
12:35 AM 45.0 °F 43.5 °F 43.7 °F 95% 30.06 in 10.0 mi ESE 3.5 mph - N/A   Clear
12:55 AM 45.1 °F - 43.7 °F 95% 30.06 in 10.0 mi Calm Calm - N/A   Clear
1:15 AM 43.0 °F 41.3 °F 42.1 °F 97% 30.06 in 10.0 mi East 3.5 mph - N/A   Clear
1:35 AM 43.3 °F - 42.4 °F 97% 30.06 in 7.0 mi Calm Calm - N/A   Clear
1:55 AM 41.5 °F 38.6 °F 40.8 °F 97% 30.06 in 5.0 mi East 4.6 mph - N/A   Clear
2:35 AM 41.2 °F 39.2 °F 40.8 °F 99% 30.06 in 5.0 mi ENE 3.5 mph - N/A   Clear
2:55 AM 40.5 °F 38.4 °F 40.1 °F 99% 30.06 in 5.0 mi East 3.5 mph - N/A   Clear
3:15 AM 41.9 °F - 41.4 °F 98% 30.06 in 4.0 mi Calm Calm - N/A   Clear
3:35 AM 41.4 °F - 41.0 °F 99% 30.07 in 4.0 mi Calm Calm - N/A   Clear
3:55 AM 39.0 °F - 38.5 °F 98% 30.07 in 4.0 mi Calm Calm - N/A   Clear
4:35 AM 39.4 °F 36.1 °F 38.7 °F 97% 30.07 in 5.0 mi NE 4.6 mph - N/A   Clear
4:55 AM 39.2 °F 35.9 °F 38.7 °F 98% 30.07 in 2.0 mi NE 4.6 mph - N/A   Clear
5:15 AM 39.7 °F 36.5 °F 39.6 °F 99% 30.07 in 2.5 mi NNE 4.6 mph - N/A   Clear
5:35 AM 39.6 °F 37.4 °F 39.4 °F 99% 30.08 in 0.8 mi NE 3.5 mph - N/A   Overcast
5:55 AM 40.6 °F 38.6 °F 40.6 °F 100% 30.08 in 0.5 mi NE 3.5 mph - N/A Fog Fog
6:15 AM 41.0 °F 39.0 °F 41.0 °F 100% 30.08 in 0.2 mi NE 3.5 mph - N/A Fog Fog
6:35 AM 41.0 °F 39.0 °F 41.0 °F 100% 30.08 in 0.5 mi NE 3.5 mph - N/A Fog Fog
6:55 AM 41.2 °F 39.2 °F 41.2 °F 100% 30.08 in 0.2 mi NE 3.5 mph - N/A Fog Fog
7:15 AM 41.9 °F 40.0 °F 41.9 °F 100% 30.07 in 0.2 mi ENE 3.5 mph - N/A Fog Fog
7:35 AM 42.3 °F 40.5 °F 42.3 °F 100% 30.08 in 0.2 mi ENE 3.5 mph - N/A Fog Fog
7:55 AM 43.0 °F 41.3 °F 43.0 °F 100% 30.08 in 0.2 mi ENE 3.5 mph - N/A Fog Fog
8:15 AM 43.9 °F 41.3 °F 43.9 °F 100% 30.07 in 0.2 mi ENE 4.6 mph - N/A Fog Fog
8:35 AM 45.5 °F 41.8 °F 45.5 °F 100% 30.08 in 0.2 mi East 6.9 mph - N/A Fog Fog
8:55 AM 46.4 °F 44.3 °F 46.4 °F 100% 30.08 in 0.2 mi East 4.6 mph - N/A Fog Fog
9:15 AM 47.7 °F - 47.7 °F 100% 30.07 in 0.2 mi East 6.9 mph - N/A Fog Fog
9:35 AM 49.1 °F - 49.1 °F 100% 30.07 in 1.2 mi ESE 6.9 mph - N/A   Overcast
9:55 AM 49.3 °F - 49.1 °F 99% 30.07 in 3.0 mi ESE 5.8 mph - N/A   Mostly Cloudy
10:15 AM 51.1 °F - 49.5 °F 94% 30.07 in 5.0 mi East 3.5 mph - N/A   Scattered Clouds
10:35 AM 54.5 °F - 49.5 °F 83% 30.07 in 10.0 mi SE 4.6 mph - N/A   Scattered Clouds
10:55 AM 56.7 °F - 49.5 °F 77% 30.07 in 10.0 mi SE 4.6 mph - N/A   Clear
11:15 AM 58.6 °F - 50.0 °F 73% 30.06 in 10.0 mi East 5.8 mph - N/A   Clear
11:35 AM 59.5 °F - 50.2 °F 71% 30.06 in 10.0 mi ENE 5.8 mph - N/A   Clear
11:55 AM 61.7 °F - 50.5 °F 67% 30.05 in 10.0 mi East 3.5 mph - N/A   Clear
12:15 PM 63.5 °F - 49.1 °F 59% 30.05 in 10.0 mi ESE 5.8 mph - N/A   Clear
12:55 PM 65.1 °F - 48.4 °F 55% 30.03 in 10.0 mi ESE 6.9 mph - N/A   Clear
1:15 PM 66.2 °F - 47.3 °F 51% 30.03 in 10.0 mi East 8.1 mph - N/A   Clear
1:35 PM 66.4 °F - 46.9 °F 50% 30.02 in 10.0 mi SE 5.8 mph - N/A   Clear
1:55 PM 66.4 °F - 46.9 °F 50% 30.02 in 10.0 mi SE 5.8 mph - N/A   Clear
2:15 PM 67.1 °F - 46.2 °F 47% 30.02 in 10.0 mi SE 8.1 mph - N/A   Clear
2:35 PM 67.6 °F - 46.4 °F 46% 30.01 in 10.0 mi SSE 6.9 mph - N/A   Clear
2:55 PM 67.6 °F - 46.8 °F 47% 30.01 in 10.0 mi East 6.9 mph - N/A   Clear
3:15 PM 67.5 °F - 47.5 °F 49% 30.00 in 10.0 mi East 8.1 mph - N/A   Clear
3:35 PM 68.2 °F - 47.7 °F 48% 30.00 in 10.0 mi SE 5.8 mph - N/A   Clear
3:55 PM 67.1 °F - 45.9 °F 46% 30.00 in 10.0 mi SE 8.1 mph - N/A   Clear
4:15 PM 68.0 °F - 47.8 °F 48% 29.99 in 10.0 mi East 6.9 mph - N/A   Clear
4:35 PM 67.1 °F - 47.3 °F 49% 29.99 in 10.0 mi SE 4.6 mph - N/A   Clear
4:55 PM 67.6 °F - 48.0 °F 49% 29.99 in 10.0 mi Calm Calm - N/A   Clear
5:15 PM 67.5 °F - 48.7 °F 51% 29.99 in 10.0 mi SE 6.9 mph - N/A   Clear
5:35 PM 66.7 °F - 49.1 °F 53% 29.99 in 10.0 mi ESE 6.9 mph - N/A   Clear
5:55 PM 66.2 °F - 48.4 °F 53% 29.99 in 10.0 mi ESE 5.8 mph - N/A   Clear
6:15 PM 64.6 °F - 49.1 °F 57% 29.99 in 10.0 mi ESE 6.9 mph - N/A   Clear
6:35 PM 63.0 °F - 49.3 °F 61% 29.99 in 10.0 mi ESE 4.6 mph - N/A   Clear
6:55 PM 60.6 °F - 49.3 °F 66% 29.99 in 10.0 mi ESE 4.6 mph - N/A   Clear
7:15 PM 58.1 °F - 50.2 °F 75% 29.99 in 10.0 mi ESE 3.5 mph - N/A   Scattered Clouds
7:35 PM 57.2 °F - 49.5 °F 75% 29.99 in 10.0 mi East 3.5 mph - N/A   Overcast
7:55 PM 54.7 °F - 48.6 °F 80% 30.00 in 10.0 mi Calm Calm - N/A   Mostly Cloudy
8:15 PM 52.7 °F - 48.6 °F 86% 30.01 in 10.0 mi Calm Calm - N/A   Scattered Clouds
8:35 PM 50.5 °F - 48.4 °F 92% 30.01 in 10.0 mi East 3.5 mph - N/A   Clear
8:55 PM 51.3 °F - 49.1 °F 92% 30.01 in 10.0 mi East 3.5 mph - N/A   Clear
9:15 PM 50.9 °F - 48.2 °F 90% 30.00 in 10.0 mi SE 3.5 mph - N/A   Clear
9:35 PM 52.2 °F - 48.6 °F 88% 30.01 in 10.0 mi ESE 3.5 mph - N/A   Clear
9:55 PM 52.0 °F - 48.4 °F 88% 30.01 in 10.0 mi Calm Calm - N/A   Clear
10:15 PM 50.5 °F - 47.8 °F 90% 30.01 in 10.0 mi Calm Calm - N/A   Clear
10:35 PM 48.9 °F - 47.3 °F 94% 30.01 in 10.0 mi Calm Calm - N/A   Clear
10:55 PM 49.1 °F - 47.1 °F 93% 30.02 in 10.0 mi Calm Calm - N/A   Clear
11:15 PM 45.7 °F - 44.2 °F 95% 30.01 in 7.0 mi Calm Calm - N/A   Clear
11:35 PM 45.1 °F - 44.4 °F 97% 30.01 in 7.0 mi Calm Calm - N/A   Clear
11:55 PM 45.1 °F - 43.9 °F 95% 30.01 in 10.0 mi Calm Calm - N/A   Clear